[[{"header":{"parameterUnit":"m.s-1","parameterCategory":1,"la1":30.2991,"la2":30.254,"lo1":-89.0895,"lo2":-89.0444,"dy":0.0017,"dx":0.0017,"nx":28,"ny":28,"refTime":"2024-07-31T09:00:00:Z","depth":0,"parameterNumber":2,"parameterNumberName":"U-component_of_WINDS"},"data":[0,0,0,0,0,0,0,0,0,0,0,0,0,0,0,0,0,0,0,0,0,0,0,0,0,0,0,0,0,0,0,0,0,0,0,0,0,0,0,0,0,0,0,0,0,0,0,0,0,0,0,0,0,0,0,0,0,0,3.7181,3.7182,0,3.7293,3.7294,3.7295,3.7238,3.7235,3.7232,3.723,3.7347,3.7352,3.7358,0,0,0,0,0,0,0,0,0,0,0,0,0,3.6918,3.6923,3.7181,3.7182,3.7183,3.7292,3.7294,3.7295,3.7239,3.7235,3.7232,3.7228,3.7345,3.7352,3.7359,0,0,0,0,0,0,0,0,0,0,0,0,0,3.7031,3.6925,3.718,3.7168,3.7168,3.7292,3.7294,3.7296,3.724,3.7235,3.7231,3.7226,3.7342,3.7351,3.736,3.7503,0,0,3.7387,3.739,0,0,0,0,0,0,0,0,3.7025,3.7041,3.7169,3.7169,3.7169,3.7247,3.7244,3.7365,3.7241,3.7213,3.7229,3.7224,3.7317,3.7328,3.7359,3.7508,3.7513,3.7387,3.7393,3.7397,3.7399,0,0,0,0,0,0,0,3.7017,3.7036,3.7225,3.717,3.7171,3.7157,3.7168,3.7267,3.7289,3.7215,3.7211,3.7225,3.7317,3.735,3.7361,3.7515,3.7387,3.7395,3.74,3.7404,3.7784,3.7788,0,0,0,0,0,0,3.701,3.703,3.7221,3.7228,3.7085,3.7165,3.7178,3.7227,3.7287,3.7292,3.7228,3.7222,3.7337,3.7351,3.7365,3.7533,3.7397,3.7405,3.741,3.7779,3.7785,3.779,0,0,0,0,0,0,3.7004,3.7027,3.7217,3.7128,3.7151,3.7175,3.723,3.7231,3.7265,3.7298,3.7301,3.7259,3.7334,3.7353,3.7468,3.7537,3.7409,3.7417,3.7773,3.7781,3.7787,3.7873,0,0,0,0,0,0,3.6997,3.7026,3.708,3.713,3.7156,3.7318,3.7234,3.7236,3.728,3.7272,3.7327,3.7332,3.7332,3.7455,3.7477,3.7547,3.7424,3.7767,3.7777,3.7785,3.7865,3.7883,3.7898,0,0,0,0,0,3.6988,3.7102,3.7083,3.7107,3.7225,3.7322,3.7337,3.7335,3.7286,3.734,3.7361,3.733,3.7526,3.7467,3.7491,3.7565,3.7763,3.7774,3.7785,3.7857,3.7879,3.7898,0,0,0,0,0,0,3.7062,3.7108,3.7088,3.7222,3.7268,3.7313,3.7382,3.7359,3.7422,3.7412,3.7407,3.742,3.7539,3.7564,3.7497,3.7705,3.7637,3.7653,3.7684,3.7705,3.7722,3.7712,3.7431,0,0,0,0,0,3.7093,3.7168,3.7205,3.7319,3.7343,3.7359,3.7401,3.7395,3.7443,3.7463,3.7492,3.7541,3.7613,3.7661,3.7729,3.7868,3.7878,3.793,3.7947,3.7961,3.7974,3.8046,3.8069,3.7826,3.7825,3.7825,0,0,3.716,3.7194,3.7242,3.7334,3.737,3.7447,3.7376,3.7461,3.7518,3.7476,3.7586,3.7609,3.7663,3.779,3.7847,3.7814,3.8044,3.7975,3.7985,3.7991,3.806,3.8083,3.8103,3.7833,3.7832,3.783,0,0,3.7319,3.7354,3.7451,3.7487,3.7541,3.755,3.7573,3.7621,3.7634,3.7744,3.7713,3.7781,3.7906,3.7944,3.798,3.8152,3.8125,3.8174,3.8262,3.8332,3.8351,3.8368,3.8426,3.8448,3.8188,3.8188,3.8189,0,3.7395,3.751,3.7504,3.7591,3.7631,3.7595,3.7692,3.7729,3.7803,3.7831,3.7793,3.7947,3.7981,3.8114,3.8156,3.8187,3.8212,3.8167,3.8349,3.8366,3.8381,3.8437,3.8459,3.8194,3.8193,3.8193,3.8192,0,3.7599,3.7679,3.7751,3.782,3.7869,3.7961,3.7969,3.8019,3.8008,3.8021,3.8131,3.8171,3.8245,3.8276,3.8268,3.8408,3.8385,3.8349,3.828,3.841,3.8462,3.8483,3.8202,3.82,3.8198,3.8197,0,0,3.7809,3.7872,3.7899,3.7928,3.7984,3.8045,3.8135,3.8206,3.8247,3.83,3.8373,3.8478,3.8443,3.8484,3.8479,3.8541,3.867,3.8496,3.8497,3.8525,3.8824,3.8849,3.8874,3.8653,3.8657,3.8661,3.8818,0,3.797,3.8125,3.8121,3.8265,3.8337,3.8303,3.8381,3.8423,3.8437,3.85,3.8516,3.8589,3.8539,3.8563,3.8623,3.8642,3.873,3.8631,3.872,3.8723,3.8705,3.8902,3.893,3.9077,3.8839,3.8842,3.8845,0,3.8179,3.8235,3.8386,3.8427,3.8457,3.8527,3.859,3.8651,3.8698,3.8703,3.8748,3.8732,3.8822,3.8752,3.8874,3.8806,3.8843,3.8858,3.8863,3.887,3.8791,3.8911,3.9124,3.9145,3.8877,3.8875,3.8872,0,3.8313,3.8427,3.853,3.8558,3.861,3.8659,3.8683,3.8725,3.8767,3.8822,3.8849,3.8915,3.895,3.9002,3.9004,3.8953,3.9126,3.9057,3.9132,3.9132,3.9169,3.9166,3.9388,3.9197,3.9196,3.9196,3.9195,0,3.8492,3.8585,3.8591,3.8655,3.8757,3.8751,3.8853,3.8872,3.8909,3.8975,3.8951,3.9014,3.9014,3.9078,3.9081,3.918,3.9197,3.9203,3.9202,3.9204,3.9203,3.9226,3.9215,3.9202,3.92,3.9199,3.9198,0,3.8659,3.8667,3.8777,3.8816,3.8828,3.8902,3.8935,3.8995,3.9006,3.909,3.9109,3.9127,3.92,3.9208,3.9295,3.9296,3.9414,3.9404,3.9398,3.9396,3.9469,3.9461,3.9712,3.9743,3.9534,3.9536,3.9538,0,3.8771,3.8841,3.8887,3.8929,3.8955,3.9023,3.9065,3.9062,3.9106,3.9163,3.9216,3.9286,3.9342,3.9461,3.9482,3.9547,3.9536,3.962,3.9546,3.9544,3.9534,3.9529,3.9534,3.9633,3.9636,3.9638,3.9639,0,3.8969,3.8968,3.9029,3.9091,3.914,3.9189,3.9235,3.927,3.9273,3.9324,3.9398,3.9441,3.9527,3.9597,3.966,3.9685,3.9662,3.9662,3.9682,3.9684,3.9676,3.9678,3.9434,3.9656,3.9654,3.9653,3.9652,3.9652,3.911,3.9169,3.9209,3.9277,3.931,3.9353,3.941,3.9427,3.9488,3.9557,3.9552,3.9633,3.9675,3.9757,3.9786,3.9849,3.9821,3.9851,3.9858,3.9865,3.9871,3.9668,3.9861,3.9861,3.986,3.986,3.9859,0,3.9304,3.9327,3.9389,3.9452,3.9505,3.9478,3.9526,3.9572,3.9643,3.9684,3.9738,3.9822,3.9889,3.9914,3.9978,4.0024,4.0015,4.0041,4.0036,4.0041,3.9894,3.9868,4.0047,4.0047,4.0047,4.0046,4.0046,4.0046,3.941,3.9508,3.9512,3.9625,3.9648,3.9726,3.9755,3.9794,3.9826,3.9919,3.9974,3.9989,4.0023,4.009,4.015,4.0155,4.0179,4.0209,4.021,4.0071,4.0052,4.0034,4.001,4.0215,4.0215,4.0352,4.0353,4.0354]},{"header":{"parameterUnit":"m.s-1","parameterCategory":1,"la1":30.2991,"la2":30.254,"lo1":-89.0895,"lo2":-89.0444,"dy":0.0017,"dx":0.0017,"nx":28,"ny":28,"refTime":"2024-07-31T09:00:00:Z","depth":0,"parameterNumber":3,"parameterNumberName":"V-component_of_WINDS"},"data":[0,0,0,0,0,0,0,0,0,0,0,0,0,0,0,0,0,0,0,0,0,0,0,0,0,0,0,0,0,0,0,0,0,0,0,0,0,0,0,0,0,0,0,0,0,0,0,0,0,0,0,0,0,0,0,0,0,0,2.4443,2.4444,0,2.4536,2.4537,2.4538,2.4536,2.4534,2.4533,2.4532,2.4624,2.4627,2.4631,0,0,0,0,0,0,0,0,0,0,0,0,0,2.4259,2.4262,2.4443,2.4444,2.4445,2.4536,2.4537,2.4539,2.4536,2.4534,2.4533,2.4531,2.4623,2.4627,2.4631,0,0,0,0,0,0,0,0,0,0,0,0,0,2.4344,2.4263,2.4443,2.4455,2.4457,2.4536,2.4537,2.4539,2.4536,2.4534,2.4532,2.4531,2.4621,2.4626,2.4632,2.4704,0,0,2.4649,2.4651,0,0,0,0,0,0,0,0,2.4339,2.4351,2.4452,2.4454,2.4457,2.4522,2.4506,2.4594,2.4537,2.4506,2.4532,2.453,2.4591,2.4599,2.4621,2.4708,2.4712,2.4649,2.4652,2.4655,2.4656,0,0,0,0,0,0,0,2.4333,2.4347,2.448,2.4453,2.4456,2.4454,2.4464,2.4523,2.4558,2.4508,2.4509,2.452,2.4592,2.4616,2.4623,2.4713,2.4649,2.4654,2.4657,2.4659,2.4862,2.4864,0,0,0,0,0,0,2.4325,2.4342,2.4477,2.4483,2.4392,2.4459,2.447,2.4503,2.4558,2.4564,2.4521,2.4519,2.4607,2.4617,2.4626,2.4713,2.4655,2.466,2.4663,2.486,2.4863,2.4865,0,0,0,0,0,0,2.4321,2.4337,2.4473,2.4412,2.4429,2.4465,2.4501,2.4506,2.4529,2.4567,2.4573,2.4539,2.4606,2.4618,2.4684,2.4716,2.4662,2.4667,2.4858,2.4861,2.4864,2.4887,0,0,0,0,0,0,2.4316,2.4336,2.4365,2.4413,2.4433,2.4531,2.4503,2.4509,2.4539,2.4537,2.4585,2.4591,2.4605,2.4676,2.469,2.4723,2.4671,2.4855,2.4859,2.4863,2.4884,2.4891,2.4897,0,0,0,0,0,2.4309,2.4367,2.4366,2.4382,2.4469,2.4533,2.4544,2.456,2.4542,2.457,2.4594,2.459,2.471,2.4683,2.4698,2.4733,2.4853,2.4858,2.4863,2.4881,2.489,2.4897,0,0,0,0,0,0,2.4321,2.4374,2.4373,2.4448,2.4486,2.4532,2.4569,2.4569,2.4612,2.4609,2.4626,2.4636,2.4702,2.4724,2.4693,2.4805,2.4779,2.4787,2.4788,2.4796,2.4803,2.4796,2.4676,0,0,0,0,0,2.4332,2.438,2.4424,2.4486,2.4505,2.4534,2.4562,2.4571,2.461,2.4626,2.4655,2.4693,2.4739,2.4769,2.4814,2.4887,2.4897,2.4918,2.4925,2.493,2.4937,2.4976,2.4986,2.4881,2.4881,2.4881,0,0,2.4356,2.4391,2.442,2.4489,2.4519,2.4568,2.4547,2.4599,2.4635,2.4634,2.4698,2.472,2.4763,2.4833,2.4865,2.4853,2.4968,2.4936,2.494,2.4944,2.4982,2.4991,2.5,2.4884,2.4884,2.4883,0,0,2.4424,2.4455,2.451,2.4541,2.4588,2.4606,2.4619,2.4666,2.4681,2.4746,2.4745,2.4787,2.4867,2.4897,2.4923,2.5001,2.4997,2.5015,2.5048,2.5086,2.5095,2.5102,2.5129,2.5138,2.5021,2.5021,2.5021,0,2.4447,2.4521,2.4538,2.4591,2.462,2.4622,2.4677,2.4706,2.4764,2.4784,2.477,2.4869,2.4898,2.4974,2.4993,2.5015,2.5029,2.5009,2.5092,2.51,2.5107,2.5132,2.5143,2.5023,2.5023,2.5022,2.5022,0,2.4547,2.4598,2.4636,2.4693,2.4727,2.4781,2.4804,2.4836,2.4842,2.4862,2.4927,2.4961,2.5013,2.5031,2.5038,2.5108,2.5099,2.5089,2.5064,2.5118,2.5143,2.5153,2.5025,2.5025,2.5024,2.5024,0,0,2.4624,2.469,2.4704,2.4729,2.478,2.4819,2.4872,2.4923,2.495,2.4989,2.5033,2.51,2.509,2.5119,2.5129,2.5162,2.522,2.5147,2.5148,2.5159,2.5298,2.5305,2.5317,2.5218,2.522,2.5222,2.5294,0,2.4697,2.4792,2.4808,2.489,2.4937,2.4939,2.4984,2.502,2.5039,2.508,2.5101,2.5148,2.5133,2.515,2.5183,2.5206,2.5248,2.5201,2.5258,2.5259,2.5246,2.533,2.5337,2.5404,2.5304,2.5306,2.5307,0,2.4794,2.4837,2.4924,2.4968,2.4988,2.5029,2.5077,2.5117,2.5156,2.5168,2.52,2.5205,2.5258,2.5231,2.5303,2.527,2.5294,2.5309,2.5312,2.5317,2.5286,2.5336,2.5426,2.5436,2.5322,2.5321,2.532,0,2.484,2.492,2.4982,2.5004,2.5057,2.5086,2.5109,2.5147,2.5176,2.5217,2.5236,2.5282,2.5307,2.5342,2.5359,2.5338,2.5429,2.5404,2.5439,2.5439,2.5458,2.5456,2.5552,2.5475,2.5475,2.5474,2.5474,0,2.4919,2.4972,2.5004,2.5042,2.5101,2.5119,2.5176,2.5198,2.5232,2.5273,2.5277,2.5316,2.5336,2.5377,2.539,2.5447,2.5459,2.5468,2.5471,2.5468,2.5466,2.5483,2.5478,2.5477,2.5477,2.5476,2.5476,0,2.4981,2.5005,2.5072,2.5117,2.5129,2.5171,2.5208,2.5244,2.5264,2.5316,2.5329,2.5358,2.5407,2.5427,2.5486,2.5495,2.556,2.556,2.5547,2.5548,2.5582,2.5578,2.5691,2.5706,2.5619,2.562,2.5621,0,2.5029,2.507,2.5119,2.5148,2.5172,2.5218,2.5248,2.5266,2.5297,2.5345,2.5375,2.5423,2.5463,2.554,2.5566,2.5611,2.5611,2.5647,2.5617,2.5612,2.561,2.5607,2.561,2.5652,2.5653,2.5654,2.5654,0,2.5112,2.5121,2.5165,2.5213,2.5248,2.5287,2.5324,2.5346,2.5371,2.5405,2.5455,2.5486,2.5546,2.5594,2.564,2.5662,2.5662,2.5664,2.5674,2.5671,2.5661,2.5666,2.5561,2.5661,2.566,2.566,2.5659,2.5659,2.5167,2.5203,2.5243,2.5292,2.5322,2.5356,2.5392,2.5416,2.5458,2.551,2.5518,2.5571,2.5608,2.567,2.5694,2.5735,2.5725,2.5741,2.5744,2.5748,2.5749,2.5655,2.5743,2.5743,2.5743,2.5743,2.5743,0,2.5249,2.5275,2.5319,2.5371,2.5409,2.5407,2.5448,2.5479,2.5526,2.5561,2.56,2.5657,2.5703,2.5732,2.5778,2.5805,2.5806,2.5816,2.5814,2.5819,2.5756,2.5742,2.5815,2.5815,2.5815,2.5815,2.5815,2.5815,2.5296,2.5356,2.5371,2.5445,2.547,2.5523,2.5547,2.5578,2.5606,2.567,2.5708,2.5728,2.576,2.5808,2.585,2.5857,2.5873,2.5884,2.589,2.5831,2.5823,2.5816,2.5803,2.5888,2.5888,2.595,2.5951,2.5951]}]]